datetime,ave air temp
1990-10-01,57.2
1990-10-02,42.44
1990-10-03,47.66
1990-10-04,55.22
1990-10-05,44.6
1990-10-06,32.54
1990-10-07,35.06
1990-10-08,43.16
1990-10-09,50.18
1990-10-10,45.68
1990-10-11,41.72
1990-10-12,46.04
1990-10-13,41.36
1990-10-14,46.58
1990-10-15,48.74
1990-10-16,37.94
1990-10-17,43.52
1990-10-18,38.48
1990-10-19,30.92
1990-10-20,36.14
1990-10-21,42.26
1990-10-22,42.26
1990-10-23,45.5
1990-10-24,54.5
1990-10-25,53.42
1990-10-26,48.02
1990-10-27,51.08
1990-10-28,43.88
1990-10-29,42.98
1990-10-30,42.26
1990-10-31,32.0
1990-11-01,26.6
1990-11-02,27.14
1990-11-03,36.68
1990-11-04,38.48
1990-11-05,28.4
1990-11-06,26.96
1990-11-07,30.92
1990-11-08,40.82
1990-11-09,41.0
1990-11-10,46.94
1990-11-11,47.48
1990-11-12,47.84
1990-11-13,43.7
1990-11-14,28.4
1990-11-15,28.58
1990-11-16,37.4
1990-11-17,35.96
1990-11-18,32.36
1990-11-19,28.22
1990-11-20,26.06
1990-11-21,30.02
1990-11-22,31.82
1990-11-23,39.2
1990-11-24,43.52
1990-11-25,30.02
1990-11-26,20.84
1990-11-27,23.9
1990-11-28,24.62
1990-11-29,31.28
1990-11-30,26.06
1990-12-01,23.54
1990-12-02,23.9
1990-12-03,33.26
1990-12-04,35.06
1990-12-05,35.06
1990-12-06,30.38
1990-12-07,33.8
1990-12-08,40.28
1990-12-09,40.46
1990-12-10,33.08
1990-12-11,24.62
1990-12-12,21.92
1990-12-13,18.86
1990-12-14,18.86
1990-12-15,23.72
1990-12-16,23.9
1990-12-17,28.4
1990-12-18,26.6
1990-12-19,5.54
1990-12-20,-10.12
1990-12-21,-14.62
1990-12-22,-3.46
1990-12-23,11.84
1990-12-24,17.6
1990-12-25,21.56
1990-12-26,24.26
1990-12-27,23.72
1990-12-28,18.32
1990-12-29,4.46
1990-12-30,18.32
1990-12-31,26.78
1991-01-01,32.36
1991-01-02,32.54
1991-01-03,30.74
1991-01-04,28.76
1991-01-05,28.58
1991-01-06,28.76
1991-01-07,28.94
1991-01-08,25.52
1991-01-09,28.22
1991-01-10,30.38
1991-01-11,32.36
1991-01-12,34.34
1991-01-13,35.6
1991-01-14,35.78
1991-01-15,32.36
1991-01-16,30.02
1991-01-17,35.96
1991-01-18,34.88
1991-01-19,28.4
1991-01-20,24.62
1991-01-21,26.42
1991-01-22,33.08
1991-01-23,32.0
1991-01-24,29.3
1991-01-25,29.66
1991-01-26,32.0
1991-01-27,30.2
1991-01-28,25.88
1991-01-29,23.9
1991-01-30,33.26
1991-01-31,36.86
1991-02-01,38.48
1991-02-02,34.16
1991-02-03,33.26
1991-02-04,33.08
1991-02-05,34.7
1991-02-06,34.34
1991-02-07,39.38
1991-02-08,37.94
1991-02-09,37.58
1991-02-10,40.64
1991-02-11,40.46
1991-02-12,32.9
1991-02-13,38.3
1991-02-14,42.44
1991-02-15,42.62
1991-02-16,33.8
1991-02-17,29.3
1991-02-18,30.56
1991-02-19,39.38
1991-02-20,38.48
1991-02-21,42.44
1991-02-22,41.18
1991-02-23,35.24
1991-02-24,37.04
1991-02-25,41.0
1991-02-26,41.9
1991-02-27,40.82
1991-02-28,33.98
1991-03-01,32.72
1991-03-02,31.1
1991-03-03,34.34
1991-03-04,32.18
1991-03-05,22.46
1991-03-06,22.46
1991-03-07,26.42
1991-03-08,31.28
1991-03-09,32.9
1991-03-10,25.52
1991-03-11,21.38
1991-03-12,26.96
1991-03-13,27.14
1991-03-14,25.16
1991-03-15,27.14
1991-03-16,26.6
1991-03-17,33.8
1991-03-18,30.74
1991-03-19,28.04
1991-03-20,27.86
1991-03-21,28.76
1991-03-22,28.58
1991-03-23,28.94
1991-03-24,26.24
1991-03-25,27.32
1991-03-26,26.78
1991-03-27,30.92
1991-03-28,33.98
1991-03-29,36.14
1991-03-30,42.62
1991-03-31,40.64
1991-04-01,40.1
1991-04-02,36.5
1991-04-03,36.32
1991-04-04,43.34
1991-04-05,37.22
1991-04-06,37.22
1991-04-07,27.86
1991-04-08,31.64
1991-04-09,33.8
1991-04-10,22.28
1991-04-11,28.4
1991-04-12,39.92
1991-04-13,40.82
1991-04-14,36.86
1991-04-15,30.74
1991-04-16,30.02
1991-04-17,32.36
1991-04-18,35.24
1991-04-19,40.82
1991-04-20,37.4
1991-04-21,37.22
1991-04-22,40.1
1991-04-23,37.58
1991-04-24,32.0
1991-04-25,27.86
1991-04-26,30.74
1991-04-27,32.54
1991-04-28,35.42
1991-04-29,36.86
1991-04-30,43.88
1991-05-01,40.46
1991-05-02,38.12
1991-05-03,39.56
1991-05-04,45.68
1991-05-05,47.48
1991-05-06,43.34
1991-05-07,44.6
1991-05-08,34.88
1991-05-09,30.2
1991-05-10,34.34
1991-05-11,37.04
1991-05-12,42.98
1991-05-13,37.58
1991-05-14,41.0
1991-05-15,47.48
1991-05-16,41.54
1991-05-17,30.02
1991-05-18,32.9
1991-05-19,37.76
1991-05-20,41.72
1991-05-21,51.44
1991-05-22,59.72
1991-05-23,52.88
1991-05-24,51.08
1991-05-25,41.72
1991-05-26,40.28
1991-05-27,44.6
1991-05-28,43.88
1991-05-29,36.86
1991-05-30,35.96
1991-05-31,46.22
1991-06-01,56.66
1991-06-02,59.36
1991-06-03,52.52
1991-06-04,41.18
1991-06-05,38.12
1991-06-06,40.82
1991-06-07,51.44
1991-06-08,55.76
1991-06-09,63.14
1991-06-10,67.82
1991-06-11,57.92
1991-06-12,50.9
1991-06-13,42.08
1991-06-14,45.32
1991-06-15,53.6
1991-06-16,47.48
1991-06-17,51.98
1991-06-18,56.66
1991-06-19,42.8
1991-06-20,45.68
1991-06-21,50.54
1991-06-22,50.72
1991-06-23,48.38
1991-06-24,44.78
1991-06-25,45.86
1991-06-26,48.56
1991-06-27,46.76
1991-06-28,46.58
1991-06-29,48.02
1991-06-30,53.6
1991-07-01,63.14
1991-07-02,71.24
1991-07-03,75.2
1991-07-04,74.48
1991-07-05,70.52
1991-07-06,67.46
1991-07-07,67.46
1991-07-08,66.56
1991-07-09,62.42
1991-07-10,58.82
1991-07-11,64.94
1991-07-12,69.98
1991-07-13,65.84
1991-07-14,61.16
1991-07-15,58.28
1991-07-16,55.94
1991-07-17,54.32
1991-07-18,61.88
1991-07-19,65.3
1991-07-20,63.86
1991-07-21,65.3
1991-07-22,69.8
1991-07-23,66.92
1991-07-24,64.76
1991-07-25,60.98
1991-07-26,63.86
1991-07-27,69.44
1991-07-28,71.6
1991-07-29,69.8
1991-07-30,68.72
1991-07-31,67.64
1991-08-01,62.06
1991-08-02,66.38
1991-08-03,66.56
1991-08-04,60.62
1991-08-05,60.44
1991-08-06,59.72
1991-08-07,58.46
1991-08-08,64.04
1991-08-09,61.7
1991-08-10,57.02
1991-08-11,62.96
1991-08-12,64.58
1991-08-13,64.22
1991-08-14,64.22
1991-08-15,61.16
1991-08-16,62.42
1991-08-17,64.04
1991-08-18,66.74
1991-08-19,68.36
1991-08-20,64.22
1991-08-21,66.2
1991-08-22,68.18
1991-08-23,64.94
1991-08-24,63.86
1991-08-25,58.64
1991-08-26,60.98
1991-08-27,55.58
1991-08-28,51.98
1991-08-29,58.82
1991-08-30,62.96
1991-08-31,61.16
1991-09-01,58.64
1991-09-02,61.34
1991-09-03,68.18
1991-09-04,67.1
1991-09-05,64.76
1991-09-06,64.94
1991-09-07,58.28
1991-09-08,53.24
1991-09-09,51.8
1991-09-10,52.34
1991-09-11,55.22
1991-09-12,60.08
1991-09-13,57.38
1991-09-14,52.52
1991-09-15,60.26
1991-09-16,65.66
1991-09-17,68.54
1991-09-18,68.18
1991-09-19,69.08
1991-09-20,62.24
1991-09-21,49.64
1991-09-22,56.12
1991-09-23,59.72
1991-09-24,63.68
1991-09-25,67.46
1991-09-26,61.16
1991-09-27,58.64
1991-09-28,57.92
1991-09-29,59.72
1991-09-30,61.88
1991-10-01,62.06
1991-10-02,60.08
1991-10-03,60.62
1991-10-04,58.1
1991-10-05,61.16
1991-10-06,59.9
1991-10-07,55.4
1991-10-08,57.38
1991-10-09,59.72
1991-10-10,62.42
1991-10-11,64.22
1991-10-12,60.98
1991-10-13,58.46
1991-10-14,63.32
1991-10-15,62.78
1991-10-16,54.14
1991-10-17,48.92
1991-10-18,51.44
1991-10-19,51.08
1991-10-20,51.98
1991-10-21,50.72
1991-10-22,36.68
1991-10-23,29.3
1991-10-24,30.2
1991-10-25,33.08
1991-10-26,31.82
1991-10-27,25.52
1991-10-28,26.06
1991-10-29,25.16
1991-10-30,24.26
1991-10-31,36.14
1991-11-01,39.38
1991-11-02,35.6
1991-11-03,43.34
1991-11-04,46.04
1991-11-05,48.38
1991-11-06,48.2
1991-11-07,50.36
1991-11-08,47.12
1991-11-09,39.56
1991-11-10,38.3
1991-11-11,44.42
1991-11-12,44.24
1991-11-13,32.9
1991-11-14,26.24
1991-11-15,27.14
1991-11-16,30.2
1991-11-17,30.2
1991-11-18,27.86
1991-11-19,30.92
1991-11-20,31.82
1991-11-21,26.06
1991-11-22,24.8
1991-11-23,33.26
1991-11-24,36.14
1991-11-25,39.02
1991-11-26,37.76
1991-11-27,25.16
1991-11-28,23.0
1991-11-29,20.84
1991-11-30,20.84
1991-12-01,27.86
1991-12-02,32.36
1991-12-03,32.18
1991-12-04,32.9
1991-12-05,37.58
1991-12-06,34.7
1991-12-07,26.42
1991-12-08,25.16
1991-12-09,28.76
1991-12-10,28.58
1991-12-11,29.12
1991-12-12,30.74
1991-12-13,27.86
1991-12-14,32.0
1991-12-15,36.14
1991-12-16,35.96
1991-12-17,32.54
1991-12-18,28.4
1991-12-19,21.2
1991-12-20,23.36
1991-12-21,28.58
1991-12-22,32.0
1991-12-23,32.0
1991-12-24,31.28
1991-12-25,32.72
1991-12-26,37.22
1991-12-27,35.42
1991-12-28,30.02
1991-12-29,28.22
1991-12-30,28.94
1991-12-31,26.6
1992-01-01,26.06
1992-01-02,31.28
1992-01-03,31.46
1992-01-04,30.38
1992-01-05,28.94
1992-01-06,25.7
1992-01-07,25.52
1992-01-08,25.7
1992-01-09,32.0
1992-01-10,30.02
1992-01-11,23.54
1992-01-12,20.84
1992-01-13,27.32
1992-01-14,30.2
1992-01-15,32.72
1992-01-16,31.1
1992-01-17,28.76
1992-01-18,30.38
1992-01-19,31.46
1992-01-20,32.0
1992-01-21,30.2
1992-01-22,31.1
1992-01-23,35.06
1992-01-24,37.4
1992-01-25,32.72
1992-01-26,33.08
1992-01-27,37.04
1992-01-28,33.26
1992-01-29,38.48
1992-01-30,41.18
1992-01-31,41.72
1992-02-01,30.38
1992-02-02,28.76
1992-02-03,34.88
1992-02-04,34.34
1992-02-05,35.24
1992-02-06,32.36
1992-02-07,32.54
1992-02-08,33.26
1992-02-09,34.88
1992-02-10,33.98
1992-02-11,33.98
1992-02-12,33.98
1992-02-13,32.0
1992-02-14,31.1
1992-02-15,26.06
1992-02-16,27.32
1992-02-17,27.86
1992-02-18,31.82
1992-02-19,35.24
1992-02-20,37.04
1992-02-21,34.7
1992-02-22,33.62
1992-02-23,36.32
1992-02-24,43.52
1992-02-25,44.78
1992-02-26,45.32
1992-02-27,45.68
1992-02-28,43.88
1992-02-29,41.54
1992-03-01,37.04
1992-03-02,38.66
1992-03-03,35.6
1992-03-04,35.6
1992-03-05,33.44
1992-03-06,31.28
1992-03-07,32.72
1992-03-08,33.8
1992-03-09,35.96
1992-03-10,39.38
1992-03-11,43.16
1992-03-12,44.96
1992-03-13,43.88
1992-03-14,39.38
1992-03-15,31.1
1992-03-16,32.0
1992-03-17,31.82
1992-03-18,32.9
1992-03-19,37.76
1992-03-20,42.26
1992-03-21,43.34
1992-03-22,37.76
1992-03-23,35.06
1992-03-24,39.38
1992-03-25,43.16
1992-03-26,41.0
1992-03-27,38.48
1992-03-28,40.82
1992-03-29,42.26
1992-03-30,41.18
1992-03-31,47.66
1992-04-01,50.54
1992-04-02,52.88
1992-04-03,46.04
1992-04-04,33.98
1992-04-05,29.84
1992-04-06,31.1
1992-04-07,40.28
1992-04-08,41.36
1992-04-09,40.1
1992-04-10,42.08
1992-04-11,40.28
1992-04-12,38.84
1992-04-13,39.02
1992-04-14,42.26
1992-04-15,40.46
1992-04-16,41.18
1992-04-17,39.02
1992-04-18,37.4
1992-04-19,45.5
1992-04-20,49.1
1992-04-21,39.02
1992-04-22,32.54
1992-04-23,38.48
1992-04-24,48.92
1992-04-25,53.78
1992-04-26,51.08
1992-04-27,51.98
1992-04-28,55.22
1992-04-29,51.08
1992-04-30,40.1
1992-05-01,42.26
1992-05-02,53.42
1992-05-03,59.0
1992-05-04,62.42
1992-05-05,64.76
1992-05-06,67.82
1992-05-07,60.26
1992-05-08,51.8
1992-05-09,44.96
1992-05-10,49.46
1992-05-11,46.76
1992-05-12,49.64
1992-05-13,55.76
1992-05-14,55.04
1992-05-15,54.5
1992-05-16,57.02
1992-05-17,58.46
1992-05-18,53.24
1992-05-19,49.1
1992-05-20,44.96
1992-05-21,47.84
1992-05-22,58.82
1992-05-23,63.5
1992-05-24,68.0
1992-05-25,61.7
1992-05-26,54.86
1992-05-27,55.4
1992-05-28,58.28
1992-05-29,57.56
1992-05-30,62.78
1992-05-31,68.0
1992-06-01,66.74
1992-06-02,63.14
1992-06-03,66.2
1992-06-04,61.88
1992-06-05,58.28
1992-06-06,62.6
1992-06-07,59.9
1992-06-08,62.24
1992-06-09,64.22
1992-06-10,58.64
1992-06-11,55.94
1992-06-12,39.38
1992-06-13,37.94
1992-06-14,40.28
1992-06-15,42.8
1992-06-16,50.18
1992-06-17,56.66
1992-06-18,56.3
1992-06-19,62.06
1992-06-20,67.46
1992-06-21,72.14
1992-06-22,75.74
1992-06-23,72.68
1992-06-24,63.14
1992-06-25,58.82
1992-06-26,63.32
1992-06-27,65.12
1992-06-28,53.78
1992-06-29,42.08
1992-06-30,43.16
1992-07-01,50.18
1992-07-02,55.58
1992-07-03,59.0
1992-07-04,56.66
1992-07-05,51.08
1992-07-06,52.16
1992-07-07,56.12
1992-07-08,59.9
1992-07-09,62.06
1992-07-10,63.32
1992-07-11,53.24
1992-07-12,58.46
1992-07-13,63.68
1992-07-14,65.66
1992-07-15,67.64
1992-07-16,72.68
1992-07-17,68.36
1992-07-18,68.36
1992-07-19,67.46
1992-07-20,59.72
1992-07-21,60.98
1992-07-22,52.52
1992-07-23,53.78
1992-07-24,60.44
1992-07-25,67.46
1992-07-26,71.24
1992-07-27,72.32
1992-07-28,72.5
1992-07-29,72.68
1992-07-30,76.82
1992-07-31,71.42
1992-08-01,69.44
1992-08-02,70.34
1992-08-03,68.36
1992-08-04,64.94
1992-08-05,64.76
1992-08-06,63.86
1992-08-07,61.16
1992-08-08,60.08
1992-08-09,66.02
1992-08-10,73.58
1992-08-11,79.52
1992-08-12,71.06
1992-08-13,71.42
1992-08-14,74.84
1992-08-15,69.08
1992-08-16,68.72
1992-08-17,72.5
1992-08-18,73.58
1992-08-19,70.34
1992-08-20,66.38
1992-08-21,57.02
1992-08-22,46.04
1992-08-23,49.28
1992-08-24,53.24
1992-08-25,57.92
1992-08-26,62.96
1992-08-27,66.56
1992-08-28,65.12
1992-08-29,63.68
1992-08-30,62.24
1992-08-31,55.94
1992-09-01,57.02
1992-09-02,57.92
1992-09-03,52.52
1992-09-04,48.92
1992-09-05,48.02
1992-09-06,43.52
1992-09-07,51.98
1992-09-08,55.4
1992-09-09,60.08
1992-09-10,63.5
1992-09-11,58.82
1992-09-12,48.2
1992-09-13,45.32
1992-09-14,52.88
1992-09-15,54.5
1992-09-16,55.4
1992-09-17,60.44
1992-09-18,59.54
1992-09-19,58.82
1992-09-20,59.9
1992-09-21,65.48
1992-09-22,65.12
1992-09-23,58.28
1992-09-24,43.88
1992-09-25,44.6
1992-09-26,54.68
1992-09-27,58.64
1992-09-28,62.24
1992-09-29,65.48
1992-09-30,62.24
1992-10-01,56.66
1992-10-02,41.0
1992-10-03,40.28
1992-10-04,43.52
1992-10-05,48.02
1992-10-06,48.56
1992-10-07,51.08
1992-10-08,50.54
1992-10-09,51.26
1992-10-10,57.56
1992-10-11,61.88
1992-10-12,60.44
1992-10-13,49.64
1992-10-14,41.72
1992-10-15,44.42
1992-10-16,48.02
1992-10-17,48.74
1992-10-18,50.18
1992-10-19,49.82
1992-10-20,47.12
1992-10-21,41.18
1992-10-22,44.96
1992-10-23,51.44
1992-10-24,52.7
1992-10-25,53.42
1992-10-26,50.72
1992-10-27,48.74
1992-10-28,37.94
1992-10-29,35.78
1992-10-30,33.08
1992-10-31,36.5
1992-11-01,43.16
1992-11-02,38.3
1992-11-03,34.34
1992-11-04,36.86
1992-11-05,37.04
1992-11-06,45.14
1992-11-07,38.48
1992-11-08,29.3
1992-11-09,26.24
1992-11-10,25.52
1992-11-11,34.34
1992-11-12,40.82
1992-11-13,43.7
1992-11-14,44.96
1992-11-15,43.7
1992-11-16,37.4
1992-11-17,34.7
1992-11-18,30.2
1992-11-19,26.6
1992-11-20,23.18
1992-11-21,27.68
1992-11-22,26.6
1992-11-23,23.54
1992-11-24,20.84
1992-11-25,30.56
1992-11-26,33.08
1992-11-27,34.34
1992-11-28,27.86
1992-11-29,26.96
1992-11-30,32.0
1992-12-01,32.54
1992-12-02,29.12
1992-12-03,19.94
1992-12-04,21.74
1992-12-05,20.3
1992-12-06,27.32
1992-12-07,27.68
1992-12-08,26.96
1992-12-09,29.3
1992-12-10,30.74
1992-12-11,23.72
1992-12-12,22.82
1992-12-13,23.18
1992-12-14,27.14
1992-12-15,19.22
1992-12-16,17.96
1992-12-17,19.22
1992-12-18,17.6
1992-12-19,17.24
1992-12-20,24.62
1992-12-21,23.9
1992-12-22,22.82
1992-12-23,26.42
1992-12-24,30.56
1992-12-25,26.96
1992-12-26,29.48
1992-12-27,28.58
1992-12-28,25.88
1992-12-29,21.92
1992-12-30,19.4
1992-12-31,26.06
1993-01-01,20.66
1993-01-02,12.38
1993-01-03,14.72
1993-01-04,19.22
1993-01-05,21.92
1993-01-06,21.74
1993-01-07,27.14
1993-01-08,22.64
1993-01-09,18.68
1993-01-10,15.08
1993-01-11,15.98
1993-01-12,17.78
1993-01-13,26.96
1993-01-14,30.2
1993-01-15,25.52
1993-01-16,27.32
1993-01-17,23.18
1993-01-18,24.26
1993-01-19,29.3
1993-01-20,30.74
1993-01-21,29.66
1993-01-22,21.74
1993-01-23,17.78
1993-01-24,28.76
1993-01-25,32.0
1993-01-26,35.24
1993-01-27,35.42
1993-01-28,30.02
1993-01-29,26.96
1993-01-30,29.12
1993-01-31,30.38
1993-02-01,29.3
1993-02-02,32.0
1993-02-03,33.08
1993-02-04,36.14
1993-02-05,34.88
1993-02-06,34.34
1993-02-07,33.26
1993-02-08,32.9
1993-02-09,31.28
1993-02-10,30.2
1993-02-11,28.22
1993-02-12,25.34
1993-02-13,25.34
1993-02-14,24.98
1993-02-15,15.26
1993-02-16,7.52
1993-02-17,19.22
1993-02-18,33.08
1993-02-19,31.28
1993-02-20,19.04
1993-02-21,21.92
1993-02-22,24.98
1993-02-23,25.88
1993-02-24,18.68
1993-02-25,17.42
1993-02-26,17.42
1993-02-27,23.72
1993-02-28,28.4
1993-03-01,29.3
1993-03-02,34.34
1993-03-03,32.36
1993-03-04,35.6
1993-03-05,40.28
1993-03-06,41.72
1993-03-07,42.62
1993-03-08,42.44
1993-03-09,38.84
1993-03-10,36.14
1993-03-11,34.88
1993-03-12,37.76
1993-03-13,37.58
1993-03-14,35.78
1993-03-15,35.6
1993-03-16,35.42
1993-03-17,37.4
1993-03-18,38.66
1993-03-19,39.02
1993-03-20,37.58
1993-03-21,40.46
1993-03-22,44.78
1993-03-23,37.58
1993-03-24,31.82
1993-03-25,30.92
1993-03-26,33.8
1993-03-27,36.32
1993-03-28,39.38
1993-03-29,36.14
1993-03-30,35.06
1993-03-31,40.28
1993-04-01,32.36
1993-04-02,32.36
1993-04-03,37.94
1993-04-04,31.64
1993-04-05,30.02
1993-04-06,32.18
1993-04-07,39.2
1993-04-08,38.12
1993-04-09,33.08
1993-04-10,29.12
1993-04-11,26.96
1993-04-12,32.0
1993-04-13,34.88
1993-04-14,37.76
1993-04-15,38.3
1993-04-16,38.12
1993-04-17,31.82
1993-04-18,31.1
1993-04-19,36.14
1993-04-20,42.26
1993-04-21,41.72
1993-04-22,34.34
1993-04-23,32.18
1993-04-24,36.68
1993-04-25,39.02
1993-04-26,33.44
1993-04-27,39.92
1993-04-28,46.22
1993-04-29,45.68
1993-04-30,42.26
1993-05-01,45.32
1993-05-02,49.1
1993-05-03,37.76
1993-05-04,35.78
1993-05-05,43.52
1993-05-06,39.02
1993-05-07,33.98
1993-05-08,38.48
1993-05-09,50.54
1993-05-10,58.46
1993-05-11,58.64
1993-05-12,47.12
1993-05-13,46.58
1993-05-14,51.26
1993-05-15,54.86
1993-05-16,57.92
1993-05-17,58.1
1993-05-18,58.28
1993-05-19,53.42
1993-05-20,49.82
1993-05-21,45.5
1993-05-22,49.82
1993-05-23,57.38
1993-05-24,54.14
1993-05-25,42.8
1993-05-26,45.5
1993-05-27,42.8
1993-05-28,43.34
1993-05-29,48.38
1993-05-30,49.28
1993-05-31,44.42
1993-06-01,41.72
1993-06-02,39.38
1993-06-03,41.9
1993-06-04,41.54
1993-06-05,39.38
1993-06-06,42.62
1993-06-07,41.72
1993-06-08,45.68
1993-06-09,52.16
1993-06-10,50.54
1993-06-11,40.28
1993-06-12,45.5
1993-06-13,57.56
1993-06-14,57.02
1993-06-15,51.08
1993-06-16,49.82
1993-06-17,57.74
1993-06-18,64.22
1993-06-19,67.1
1993-06-20,65.66
1993-06-21,52.16
1993-06-22,41.72
1993-06-23,46.94
1993-06-24,58.46
1993-06-25,66.56
1993-06-26,65.48
1993-06-27,56.66
1993-06-28,49.1
1993-06-29,
1993-06-30,58.28
1993-07-01,58.46
1993-07-02,48.92
1993-07-03,49.46
1993-07-04,51.26
1993-07-05,58.1
1993-07-06,57.38
1993-07-07,58.1
1993-07-08,60.98
1993-07-09,61.52
1993-07-10,59.18
1993-07-11,59.0
1993-07-12,52.52
1993-07-13,51.98
1993-07-14,47.66
1993-07-15,47.84
1993-07-16,48.38
1993-07-17,51.26
1993-07-18,58.1
1993-07-19,53.24
1993-07-20,49.82
1993-07-21,50.18
1993-07-22,50.72
1993-07-23,53.6
1993-07-24,53.24
1993-07-25,52.34
1993-07-26,55.22
1993-07-27,64.4
1993-07-28,61.88
1993-07-29,57.2
1993-07-30,57.92
1993-07-31,65.12
1993-08-01,70.34
1993-08-02,71.42
1993-08-03,78.44
1993-08-04,70.7
1993-08-05,
1993-08-06,66.56
1993-08-07,58.46
1993-08-08,60.26
1993-08-09,61.16
1993-08-10,60.98
1993-08-11,53.78
1993-08-12,
1993-08-13,60.26
1993-08-14,54.5
1993-08-15,42.44
1993-08-16,46.4
1993-08-17,55.22
1993-08-18,60.8
1993-08-19,57.2
1993-08-20,52.7
1993-08-21,55.4
1993-08-22,60.26
1993-08-23,56.84
1993-08-24,46.4
1993-08-25,46.58
1993-08-26,55.04
1993-08-27,61.52
1993-08-28,58.64
1993-08-29,52.7
1993-08-30,57.74
1993-08-31,63.5
1993-09-01,62.24
1993-09-02,64.4
1993-09-03,66.02
1993-09-04,64.76
1993-09-05,63.86
1993-09-06,62.6
1993-09-07,63.86
1993-09-08,68.72
1993-09-09,70.52
1993-09-10,68.72
1993-09-11,61.7
1993-09-12,47.66
1993-09-13,48.38
1993-09-14,52.16
1993-09-15,51.26
1993-09-16,45.86
1993-09-17,46.04
1993-09-18,48.02
1993-09-19,48.02
1993-09-20,42.44
1993-09-21,44.24
1993-09-22,45.86
1993-09-23,
1993-09-24,54.32
1993-09-25,57.02
1993-09-26,60.98
1993-09-27,62.6
1993-09-28,64.22
1993-09-29,66.74
1993-09-30,
1993-10-01,
1993-10-02,61.88
1993-10-03,
1993-10-04,
1993-10-05,48.02
1993-10-06,46.94
1993-10-07,
1993-10-08,
1993-10-09,43.7
1993-10-10,
1993-10-11,
1993-10-12,
1993-10-13,42.8
1993-10-14,40.46
1993-10-15,
1993-10-16,36.68
1993-10-17,36.68
1993-10-18,40.64
1993-10-19,45.14
1993-10-20,47.66
1993-10-21,46.4
1993-10-22,46.76
1993-10-23,49.28
1993-10-24,48.2
1993-10-25,48.02
1993-10-26,47.84
1993-10-27,48.38
1993-10-28,49.64
1993-10-29,45.5
1993-10-30,
1993-10-31,
1993-11-01,35.42
1993-11-02,42.62
1993-11-03,41.0
1993-11-04,33.26
1993-11-05,34.52
1993-11-06,39.2
1993-11-07,38.48
1993-11-08,36.68
1993-11-09,38.48
1993-11-10,
1993-11-11,34.7
1993-11-12,30.92
1993-11-13,26.6
1993-11-14,29.12
1993-11-15,32.36
1993-11-16,34.16
1993-11-17,32.9
1993-11-18,
1993-11-19,
1993-11-20,36.86
1993-11-21,
1993-11-22,
1993-11-23,
1993-11-24,13.28
1993-11-25,20.66
1993-11-26,28.04
1993-11-27,
1993-11-28,35.06
1993-11-29,33.26
1993-11-30,27.86
1993-12-01,32.36
1993-12-02,30.56
1993-12-03,34.7
1993-12-04,
1993-12-05,
1993-12-06,27.5
1993-12-07,31.64
1993-12-08,
1993-12-09,33.26
1993-12-10,
1993-12-11,31.1
1993-12-12,22.1
1993-12-13,27.68
1993-12-14,27.68
1993-12-15,24.62
1993-12-16,19.94
1993-12-17,18.5
1993-12-18,18.68
1993-12-19,22.82
1993-12-20,26.06
1993-12-21,
1993-12-22,28.22
1993-12-23,30.92
1993-12-24,31.64
1993-12-25,36.32
1993-12-26,32.54
1993-12-27,28.4
1993-12-28,26.96
1993-12-29,28.22
1993-12-30,
1993-12-31,30.02
1994-01-01,
1994-01-02,
1994-01-03,37.4
1994-01-04,33.8
1994-01-05,
1994-01-06,24.08
1994-01-07,26.42
1994-01-08,28.04
1994-01-09,28.4
1994-01-10,
1994-01-11,30.38
1994-01-12,
1994-01-13,37.76
1994-01-14,39.2
1994-01-15,
1994-01-16,
1994-01-17,39.56
1994-01-18,41.72
1994-01-19,42.26
1994-01-20,
1994-01-21,42.8
1994-01-22,
1994-01-23,35.06
1994-01-24,28.76
1994-01-25,
1994-01-26,25.34
1994-01-27,24.08
1994-01-28,25.88
1994-01-29,30.2
1994-01-30,27.5
1994-01-31,25.52
1994-02-01,27.68
1994-02-02,
1994-02-03,
1994-02-04,30.02
1994-02-05,29.48
1994-02-06,28.76
1994-02-07,27.86
1994-02-08,15.26
1994-02-09,27.68
1994-02-10,24.98
1994-02-11,18.5
1994-02-12,
1994-02-13,30.2
1994-02-14,32.54
1994-02-15,31.1
1994-02-16,37.58
1994-02-17,
1994-02-18,24.08
1994-02-19,23.0
1994-02-20,23.9
1994-02-21,23.72
1994-02-22,
1994-02-23,28.76
1994-02-24,33.08
1994-02-25,
1994-02-26,33.26
1994-02-27,32.9
1994-02-28,
1994-03-01,43.16
1994-03-02,45.14
1994-03-03,42.8
1994-03-04,38.84
1994-03-05,33.62
1994-03-06,32.72
1994-03-07,39.56
1994-03-08,45.86
1994-03-09,42.8
1994-03-10,
1994-03-11,33.44
1994-03-12,
1994-03-13,48.74
1994-03-14,51.26
1994-03-15,44.06
1994-03-16,32.54
1994-03-17,34.16
1994-03-18,30.92
1994-03-19,25.7
1994-03-20,33.98
1994-03-21,31.46
1994-03-22,21.2
1994-03-23,25.16
1994-03-24,35.42
1994-03-25,37.22
1994-03-26,43.16
1994-03-27,
1994-03-28,46.94
1994-03-29,42.8
1994-03-30,37.04
1994-03-31,32.0
1994-04-01,40.28
1994-04-02,44.6
1994-04-03,37.94
1994-04-04,33.98
1994-04-05,35.6
1994-04-06,32.0
1994-04-07,31.64
1994-04-08,32.0
1994-04-09,30.56
1994-04-10,36.14
1994-04-11,43.7
1994-04-12,43.34
1994-04-13,40.64
1994-04-14,
1994-04-15,
1994-04-16,55.58
1994-04-17,56.48
1994-04-18,
1994-04-19,54.14
1994-04-20,52.88
1994-04-21,45.14
1994-04-22,37.76
1994-04-23,
1994-04-24,33.44
1994-04-25,31.82
1994-04-26,35.24
1994-04-27,36.14
1994-04-28,41.54
1994-04-29,43.7
1994-04-30,39.38
1994-05-01,41.9
1994-05-02,44.24
1994-05-03,44.06
1994-05-04,43.52
1994-05-05,45.5
1994-05-06,51.08
1994-05-07,51.8
1994-05-08,54.32
1994-05-09,58.28
1994-05-10,61.88
1994-05-11,61.52
1994-05-12,50.18
1994-05-13,49.46
1994-05-14,51.62
1994-05-15,37.04
1994-05-16,34.34
1994-05-17,35.24
1994-05-18,39.2
1994-05-19,38.48
1994-05-20,42.08
1994-05-21,40.82
1994-05-22,48.74
1994-05-23,57.74
1994-05-24,62.78
1994-05-25,55.94
1994-05-26,54.5
1994-05-27,48.74
1994-05-28,49.64
1994-05-29,52.16
1994-05-30,58.46
1994-05-31,52.52
1994-06-01,47.84
1994-06-02,56.66
1994-06-03,
1994-06-04,51.08
1994-06-05,48.38
1994-06-06,
1994-06-07,40.46
1994-06-08,
1994-06-09,
1994-06-10,
1994-06-11,63.86
1994-06-12,
1994-06-13,
1994-06-14,
1994-06-15,41.36
1994-06-16,
1994-06-17,
1994-06-18,52.52
1994-06-19,
1994-06-20,62.96
1994-06-21,63.32
1994-06-22,62.96
1994-06-23,59.54
1994-06-24,60.44
1994-06-25,
1994-06-26,53.42
1994-06-27,
1994-06-28,
1994-06-29,67.82
1994-06-30,66.2
1994-07-01,62.24
1994-07-02,59.72
1994-07-03,59.18
1994-07-04,59.54
1994-07-05,49.1
1994-07-06,
1994-07-07,70.34
1994-07-08,73.94
1994-07-09,71.06
1994-07-10,68.36
1994-07-11,69.98
1994-07-12,67.82
1994-07-13,68.9
1994-07-14,68.72
1994-07-15,71.06
1994-07-16,73.76
1994-07-17,72.68
1994-07-18,71.42
1994-07-19,73.76
1994-07-20,77.18
1994-07-21,79.52
1994-07-22,67.1
1994-07-23,65.48
1994-07-24,67.1
1994-07-25,65.66
1994-07-26,70.52
1994-07-27,72.32
1994-07-28,72.5
1994-07-29,72.32
1994-07-30,71.24
1994-07-31,68.0
1994-08-01,69.08
1994-08-02,67.46
1994-08-03,67.46
1994-08-04,68.54
1994-08-05,64.22
1994-08-06,65.66
1994-08-07,64.58
1994-08-08,56.66
1994-08-09,62.06
1994-08-10,66.02
1994-08-11,65.84
1994-08-12,66.56
1994-08-13,68.36
1994-08-14,69.8
1994-08-15,66.02
1994-08-16,63.68
1994-08-17,65.48
1994-08-18,65.66
1994-08-19,62.42
1994-08-20,61.88
1994-08-21,58.64
1994-08-22,57.92
1994-08-23,62.78
1994-08-24,62.78
1994-08-25,62.06
1994-08-26,61.52
1994-08-27,63.68
1994-08-28,59.36
1994-08-29,59.54
1994-08-30,64.4
1994-08-31,63.32
1994-09-01,57.56
1994-09-02,52.7
1994-09-03,52.16
1994-09-04,56.84
1994-09-05,65.12
1994-09-06,64.22
1994-09-07,62.78
1994-09-08,58.64
1994-09-09,46.94
1994-09-10,44.42
1994-09-11,39.74
1994-09-12,44.42
1994-09-13,48.02
1994-09-14,53.42